GW0484 Weather Reports


Display with metric or nautical units.
time (UTC)temp
F
wind
direction
speed
MPH
gust
MPH
rain 1hr
in
rain 24hr
in
rain mn
in
humidity
%
barometer
mb
20260505000714 0 244 8.0 11.0 0.00 0.00 0.00 1010.8
20260505000212 0 108 4.0 6.0 0.00 0.00 0.00 1011.0
20260504235708 0 33 7.0 10.0 0.00 0.00 0.00 1011.1
20260504235204 0 340 9.0 16.0 0.00 0.00 0.00 1010.8
20260504234702 0 280 14.0 21.0 0.00 0.00 0.00 1010.8
20260504234159 0 10 16.0 21.0 0.00 0.00 0.00 1011.0
20260504233655 0 1 8.0 13.0 0.00 0.00 0.00 1011.1
20260504233150 0 278 9.0 15.0 0.00 0.00 0.00 1011.0
20260504232648 0 334 2.0 6.0 0.00 0.00 0.00 1011.1
20260504232145 0 60 6.0 7.0 0.00 0.00 0.00 1010.8
20260504231642 0 138 5.0 9.0 0.00 0.00 0.00 1010.8
20260504231138 0 334 12.0 20.0 0.00 0.00 0.00 1011.1
20260504230634 0 353 2.0 5.0 0.00 0.00 0.00 1011.0
20260504230133 0 125 1.0 2.0 0.00 0.00 0.00 1011.1
20260504225631 0 356 3.0 7.0 0.00 0.00 0.00 1011.2
20260504225127 0 48 5.0 7.0 0.00 0.00 0.00 1011.1
20260504224624 0 57 9.0 18.0 0.00 0.00 0.00 1011.2
20260504224121 0 152 5.0 10.0 0.00 0.00 0.00 1011.2
20260504223618 0 9 9.0 13.0 0.00 0.00 0.00 1011.2
20260504223114 0 334 6.0 9.0 0.00 0.00 0.00 1011.0
20260504222611 0 117 6.0 10.0 0.00 0.00 0.00 1011.0
20260504222108 0 126 2.0 3.0 0.00 0.00 0.00 1011.0
20260504221605 0 248 8.0 13.0 0.00 0.00 0.00 1011.3
20260504221102 0 120 1.0 2.0 0.00 0.00 0.00 1011.2
20260504220558 0 295 9.0 13.0 0.00 0.00 0.00 1011.1
20260504220055 0 327 10.0 15.0 0.00 0.00 0.00 1011.2
20260504215552 0 64 4.0 10.0 0.00 0.00 0.00 1011.2
20260504215050 0 214 3.0 5.0 0.00 0.00 0.00 1011.1
20260504214545 0 301 7.0 10.0 0.00 0.00 0.00 1011.2
20260504214042 0 339 6.0 11.0 0.00 0.00 0.00 1011.1
20260504213538 0 60 3.0 3.0 0.00 0.00 0.00 1011.5
20260504213035 0 318 6.0 13.0 0.00 0.00 0.00 1011.3
20260504212531 0 277 8.0 10.0 0.00 0.00 0.00 1011.1
20260504212029 0 277 6.0 8.0 0.00 0.00 0.00 1011.1
20260504211526 0 202 2.0 3.0 0.00 0.00 0.00 1011.5
20260504211023 0 334 8.0 13.0 0.00 0.00 0.00 1011.3
20260504210520 0 318 7.0 13.0 0.00 0.00 0.00 1011.2
20260504210016 0 239 5.0 7.0 0.00 0.00 0.00 1011.4
20260504205514 0 347 7.0 13.0 0.00 0.00 0.00 1011.3
20260504205012 0 69 13.0 18.0 0.00 0.00 0.00 1011.3
20260504204510 0 114 3.0 6.0 0.00 0.00 0.00 1011.2
20260504204009 0 359 6.0 10.0 0.00 0.00 0.00 1011.3
20260504203506 0 115 3.0 3.0 0.00 0.00 0.00 1011.1
20260504203003 0 129 3.0 7.0 0.00 0.00 0.00 1011.1
20260504202458 0 205 2.0 3.0 0.00 0.00 0.00 1011.1
20260504201955 0 4 4.0 6.0 0.00 0.00 0.00 1011.1
20260504201453 0 134 4.0 7.0 0.00 0.00 0.00 1011.2
20260504200950 0 309 12.0 17.0 0.00 0.00 0.00 1011.0
20260504200447 0 255 5.0 11.0 0.00 0.00 0.00 1010.7
20260504195943 0 241 9.0 13.0 0.00 0.00 0.00 1011.1
20260504195439 0 122 4.0 6.0 0.00 0.00 0.00 1011.1
20260504194936 0 170 3.0 5.0 0.00 0.00 0.00 1011.1
20260504194432 0 111 2.0 3.0 0.00 0.00 0.00 1011.1
20260504193928 0 156 3.0 5.0 0.00 0.00 0.00 1011.2
20260504193426 0 3 12.0 21.0 0.00 0.00 0.00 1011.0
20260504192924 0 217 6.0 9.0 0.00 0.00 0.00 1011.0
20260504192421 0 88 5.0 7.0 0.00 0.00 0.00 1011.1
20260504191920 0 233 3.0 3.0 0.00 0.00 0.00 1011.2
20260504191418 0 279 6.0 8.0 0.00 0.00 0.00 1011.2
20260504190913 0 337 6.0 14.0 0.00 0.00 0.00 1011.2
20260504190408 0 127 2.0 3.0 0.00 0.00 0.00 1011.3
20260504185906 0 141 5.0 8.0 0.00 0.00 0.00 1011.3
20260504185403 0 274 11.0 17.0 0.00 0.00 0.00 1011.5
20260504184858 0 329 11.0 16.0 0.00 0.00 0.00 1011.3
20260504184354 0 342 9.0 11.0 0.00 0.00 0.00 1011.5
20260504183850 0 33 7.0 10.0 0.00 0.00 0.00 1011.4
20260504183348 0 315 7.0 10.0 0.00 0.00 0.00 1011.4
20260504182845 0 33 5.0 8.0 0.00 0.00 0.00 1011.2
20260504182343 0 310 10.0 15.0 0.00 0.00 0.00 1011.2
20260504181839 0 56 6.0 9.0 0.00 0.00 0.00 1011.3
20260504181337 0 107 0.0 1.0 0.00 0.00 0.00 1011.2
20260504180836 0 2 9.0 13.0 0.00 0.00 0.00 1011.2
20260504180334 0 115 1.0 2.0 0.00 0.00 0.00 1011.2
20260504175832 0 289 9.0 13.0 0.00 0.00 0.00 1011.4
20260504175328 0 65 5.0 9.0 0.00 0.00 0.00 1011.5
20260504174826 0 1 6.0 9.0 0.00 0.00 0.00 1011.5
20260504174324 0 97 12.0 17.0 0.00 0.00 0.00 1011.5
20260504173820 0 320 12.0 14.0 0.00 0.00 0.00 1011.4
20260504173317 0 277 5.0 6.0 0.00 0.00 0.00 1011.4
20260504172814 0 305 6.0 9.0 0.00 0.00 0.00 1011.4
20260504172311 0 152 3.0 5.0 0.00 0.00 0.00 1011.6
20260504171807 0 104 1.0 2.0 0.00 0.00 0.00 1011.4
20260504171304 0 194 4.0 7.0 0.00 0.00 0.00 1011.4
20260504170801 0 40 4.0 8.0 0.00 0.00 0.00 1011.6
20260504170258 0 275 6.0 11.0 0.00 0.00 0.00 1011.3
20260504160216 0 131 3.0 3.0 0.00 0.00 0.00 1011.4
20260504151144 0 310 13.0 15.0 0.00 0.00 0.00 1011.8
20260504150641 0 329 10.0 11.0 0.00 0.00 0.00 1011.6
20260504150138 0 265 12.0 14.0 0.00 0.00 0.00 1011.8
20260504141107 0 264 9.0 11.0 0.00 0.00 0.00 1011.8
20260504140604 0 277 12.0 14.0 0.00 0.00 0.00 1011.7
20260504130528 0 261 10.0 13.0 0.00 0.00 0.00 1011.7
20260504110415 0 259 4.0 5.0 0.00 0.00 0.00 1012.2
20260504100332 0 103 0.0 0.0 0.00 0.00 0.00 1011.8
20260504081726 0 37 9.0 10.0 0.00 0.00 0.00 1011.3
20260504081222 0 340 15.0 17.0 0.00 0.00 0.00 1011.1
20260504080718 0 24 17.0 20.0 0.00 0.00 0.00 1011.0
20260504080215 0 19 18.0 21.0 0.00 0.00 0.00 1011.0
20260504070142 0 30 20.0 24.0 0.00 0.00 0.00 1009.3
20260504050531 0 21 26.0 33.0 0.00 0.00 0.00 1006.4
20260504045525 0 31 24.0 29.0 0.00 0.00 0.00 1006.3
20260504045020 0 6 20.0 26.0 0.00 0.00 0.00 1005.9
20260504044518 0 12 13.0 14.0 0.00 0.00 0.00 1005.5
20260504044015 0 28 10.0 11.0 0.00 0.00 0.00 1005.4
20260504043512 0 11 9.0 9.0 0.00 0.00 0.00 1005.3
20260504043009 0 359 11.0 13.0 0.00 0.00 0.00 1004.9
20260504042506 0 29 11.0 11.0 0.00 0.00 0.00 1005.1
20260504042003 0 20 11.0 13.0 0.00 0.00 0.00 1004.7
20260504041459 0 16 12.0 14.0 0.00 0.00 0.00 1004.9
20260504040955 0 13 13.0 14.0 0.00 0.00 0.00 1004.6
20260504040453 0 30 13.0 15.0 0.00 0.00 0.00 1004.6
20260504035948 0 22 12.0 14.0 0.00 0.00 0.00 1004.3
20260504035446 0 20 13.0 15.0 0.00 0.00 0.00 1004.5
20260504034942 0 27 12.0 14.0 0.00 0.00 0.00 1004.4
20260504034440 0 18 11.0 15.0 0.00 0.00 0.00 1004.2
20260504033937 0 24 14.0 16.0 0.00 0.00 0.00 1003.9
20260504033435 0 20 16.0 18.0 0.00 0.00 0.00 1003.7
20260504032932 0 20 19.0 22.0 0.00 0.00 0.00 1003.7
20260504032429 0 21 15.0 17.0 0.00 0.00 0.00 1003.7
20260504031925 0 13 16.0 20.0 0.00 0.00 0.00 1003.7
20260504031422 0 7 13.0 15.0 0.00 0.00 0.00 1003.6
20260504030919 0 30 13.0 15.0 0.00 0.00 0.00 1003.4
20260504030416 0 11 15.0 17.0 0.00 0.00 0.00 1003.3
20260504025912 0 26 11.0 14.0 0.00 0.00 0.00 1003.2
20260504025409 0 18 10.0 11.0 0.00 0.00 0.00 1003.3
20260504024906 0 29 12.0 13.0 0.00 0.00 0.00 1002.9
20260504024403 0 15 7.0 8.0 0.00 0.00 0.00 1003.0
20260504023900 0 8 12.0 14.0 0.00 0.00 0.00 1003.2
20260504023356 0 13 7.0 8.0 0.00 0.00 0.00 1003.2
20260504022852 0 53 6.0 8.0 0.00 0.00 0.00 1002.9
20260504022349 0 3 5.0 6.0 0.00 0.00 0.00 1003.0
20260504021845 0 27 8.0 10.0 0.00 0.00 0.00 1002.9
20260504021342 0 6 7.0 8.0 0.00 0.00 0.00 1002.7
20260504020840 0 349 5.0 7.0 0.00 0.00 0.00 1002.9
20260504020336 0 25 3.0 6.0 0.00 0.00 0.00 1003.2
20260504015832 0 354 6.0 10.0 0.00 0.00 0.00 1003.0
20260504015328 0 333 5.0 6.0 0.00 0.00 0.00 1002.7
20260504014825 0 25 9.0 11.0 0.00 0.00 0.00 1003.1
20260504014321 0 18 9.0 10.0 0.00 0.00 0.00 1003.1
20260504013819 0 25 6.0 7.0 0.00 0.00 0.00 1003.1
20260504013316 0 3 7.0 9.0 0.00 0.00 0.00 1003.0
20260504012813 0 346 5.0 7.0 0.00 0.00 0.00 1002.9
20260504012311 0 334 5.0 9.0 0.00 0.00 0.00 1003.1
20260504011808 0 24 10.0 13.0 0.00 0.00 0.00 1003.0
20260504011304 0 23 3.0 5.0 0.00 0.00 0.00 1002.8
20260504010800 0 13 4.0 6.0 0.00 0.00 0.00 1003.1
20260504010256 0 10 5.0 11.0 0.00 0.00 0.00 1003.0
20260504005753 0 34 10.0 13.0 0.00 0.00 0.00 1003.1
20260504005250 0 18 8.0 10.0 0.00 0.00 0.00 1003.2
20260504004747 0 334 7.0 14.0 0.00 0.00 0.00 1003.1
20260504004245 0 54 9.0 11.0 0.00 0.00 0.00 1003.0
20260504003741 0 268 6.0 11.0 0.00 0.00 0.00 1003.1
20260504003238 0 56 3.0 6.0 0.00 0.00 0.00 1003.3
20260504002734 0 14 3.0 5.0 0.00 0.00 0.00 1003.4
20260504002231 0 4 8.0 11.0 0.00 0.00 0.00 1003.1
20260504001729 0 334 5.0 10.0 0.00 0.00 0.00 1003.1
20260504001226 0 133 0.0 1.0 0.00 0.00 0.00 1003.4